Location: Huesca
(42.1318°N, 0.4078°W)
Time: 20:26:14
(UTC+02:00)

YUBILEINY - Pass Details

Date: 21 April 2026
Orbit: 1477 x 1509 km, 82.5° (Epoch: 17 May)

Event Time Altitude Azimuth Distance (km) Brightness Sun altitude
Rises 22:47:44 0° 5° (N) 4,610 ? -20.1°
Reaches altitude 10° 22:54:53 10° 44° (NE) 3,630 ? -21.1°
Maximum altitude 22:56:05 10° 52° (NE) 3,606 ? -21.3°
Drops below altitude 10° 22:57:16 10° 61° (ENE) 3,630 ? -21.4°
Enters shadow 22:59:49 - 77° (ENE) 3,834 ? -21.8°
